Frankfort, MI

10:52 AM EDT on April 22, 2018 (GMT -0400)
Frankfort

Weather History for KFKS - January, 2014

Change the Weather History Date:

Saturday, January 18, 2014

  Actual Average (KMBL) Record (KMBL)
Temperature  
Mean Temperature 23 °F -  
Max Temperature 26 °F 29 °F 50 °F (1973)
Min Temperature 20 °F 18 °F 1 °F (1967)
Degree Days  
Heating Degree Days 42    
Moisture  
Dew Point 20 °F    
Average Humidity 86    
Maximum Humidity 94    
Minimum Humidity 75    
Precipitation  
Precipitation 0.00 in - - ()
Sea Level Pressure  
Sea Level Pressure 29.81 in    
Wind  
Wind Speed 2 mph (NNW)    
Max Wind Speed 12 mph    
Max Gust Speed 20 mph    
Visibility 7 miles    
Events Snow    
Averages and records for this station are not official NWS values.
T = Trace of Precipitation, MM = Missing Value Source: NWS Daily Summary

Daily Weather History Graph

Daily Weather History Graph

Search for Another Location

Airport or City:

Astronomy

Jan. 18, 2014 Rise Set
Actual Time 8:16 AM EST 5:34 PM EST
Civil Twilight 7:44 AM EST 6:06 PM EST
Nautical Twilight 7:08 AM EST 6:42 PM EST
Astronomical Twilight 6:33 AM EST 7:17 PM EST
Moon 8:24 PM EST (1/18) 9:08 AM EST (1/18)
Length of Visible Light 10h 22m
Length of Day
9h 18m
Waning Gibbous, 94% of the Moon is Illuminated
Jan 18
Waning Gibbous
Jan 24
Last Quarter
Jan 30
New
Feb 6
First Quarter
Feb 14
Full

Hourly Weather History & Observations

Time (EST) Temp. Windchill Dew Point Humidity Pressure Visibility Wind Dir Wind Speed Gust Speed Precip Events Conditions
12:14 AM 24.1 °F - 19.9 °F 84% 29.82 in 10.0 mi Calm Calm - N/A   Overcast
12:34 AM 23.9 °F 19.5 °F 19.8 °F 84% 29.82 in 10.0 mi NNW 3.5 mph - N/A   Overcast
12:54 AM 23.9 °F 19.5 °F 19.6 °F 84% 29.82 in 10.0 mi NNW 3.5 mph - N/A Snow Light Snow
1:14 AM 23.7 °F 16.6 °F 19.4 °F 84% 29.82 in 10.0 mi NW 5.8 mph - N/A   Overcast
1:34 AM 23.4 °F 17.4 °F 19.4 °F 85% 29.82 in 10.0 mi NNW 4.6 mph - N/A   Overcast
1:54 AM 23.0 °F 14.7 °F 19.2 °F 85% 29.82 in 10.0 mi NW 6.9 mph - N/A   Overcast
2:15 AM 23.0 °F 17.0 °F 18.9 °F 84% 29.82 in 10.0 mi NNW 4.6 mph - N/A   Overcast
2:35 AM 22.8 °F 15.5 °F 18.5 °F 83% 29.82 in 10.0 mi NW 5.8 mph - N/A Snow Light Snow
2:55 AM 22.6 °F 15.3 °F 18.5 °F 84% 29.83 in 10.0 mi NNW 5.8 mph - N/A   Overcast
3:15 AM 22.5 °F 17.8 °F 18.3 °F 84% 29.82 in 10.0 mi NNW 3.5 mph - N/A   Overcast
3:35 AM 22.3 °F 17.6 °F 18.3 °F 85% 29.83 in 10.0 mi NNW 3.5 mph - N/A   Overcast
3:55 AM 22.3 °F - 18.1 °F 84% 29.83 in 10.0 mi Calm Calm - N/A   Overcast
4:15 AM 22.3 °F - 18.3 °F 85% 29.83 in 10.0 mi Calm Calm - N/A   Overcast
4:36 AM 22.1 °F - 18.3 °F 85% 29.82 in 10.0 mi Calm Calm - N/A   Overcast
4:56 AM 22.1 °F - 18.5 °F 86% 29.82 in 10.0 mi Calm Calm - N/A   Overcast
5:16 AM 22.5 °F - 18.3 °F 84% 29.82 in 10.0 mi Calm Calm - N/A   Overcast
5:36 AM 21.7 °F - 18.3 °F 87% 29.82 in 10.0 mi Calm Calm - N/A   Overcast
5:56 AM 21.7 °F - 18.5 °F 87% 29.82 in 10.0 mi Calm Calm - N/A   Overcast
6:16 AM 21.6 °F - 18.3 °F 87% 29.82 in 10.0 mi Calm Calm - N/A   Overcast
6:31 AM 21.2 °F - 18.3 °F 89% 29.82 in 10.0 mi Calm Calm - N/A   Overcast
6:51 AM 21.4 °F - 18.3 °F 88% 29.82 in 10.0 mi Calm Calm - N/A   Overcast
7:11 AM 21.2 °F - 18.5 °F 89% 29.81 in 10.0 mi Calm Calm - N/A   Overcast
7:31 AM 20.3 °F - 17.8 °F 90% 29.82 in 10.0 mi Calm Calm - N/A   Overcast
7:51 AM 20.7 °F - 18.7 °F 92% 29.82 in 10.0 mi Calm Calm - N/A   Overcast
8:12 AM 21.0 °F - 18.7 °F 91% 29.81 in 10.0 mi Calm Calm - N/A Snow Light Snow
8:32 AM 21.0 °F - 18.3 °F 89% 29.82 in 7.0 mi Calm Calm - N/A Snow Light Snow
8:52 AM 20.8 °F - 18.3 °F 90% 29.82 in 10.0 mi Calm Calm - N/A Snow Light Snow
9:12 AM 20.3 °F - 18.1 °F 91% 29.82 in 4.0 mi Calm Calm - N/A Snow Light Snow
9:32 AM 20.8 °F - 18.5 °F 91% 29.83 in 4.0 mi Calm Calm - N/A Snow Light Snow
9:52 AM 21.0 °F - 18.9 °F 91% 29.83 in 1.8 mi Calm Calm - N/A Snow Light Snow
10:12 AM 21.7 °F - 19.4 °F 91% 29.84 in 1.8 mi Calm Calm - N/A Snow Light Snow
10:32 AM 22.1 °F - 19.2 °F 89% 29.84 in 2.5 mi Calm Calm - N/A Snow Light Snow
10:52 AM 22.6 °F - 19.0 °F 86% 29.85 in 2.5 mi Calm Calm - N/A Snow Light Snow
11:12 AM 23.0 °F - 19.2 °F 85% 29.85 in 2.0 mi Calm Calm - N/A Snow Light Snow
11:33 AM 23.5 °F - 19.2 °F 84% 29.85 in 4.0 mi Calm Calm - N/A Snow Light Snow
11:53 AM 23.9 °F - 19.4 °F 83% 29.84 in 2.5 mi Calm Calm - N/A Snow Light Snow
12:13 PM 24.3 °F - 19.4 °F 82% 29.83 in 3.0 mi Calm Calm - N/A Snow Light Snow
12:33 PM 24.6 °F - 19.4 °F 81% 29.82 in 5.0 mi Calm Calm - N/A Snow Light Snow
12:53 PM 24.6 °F - 19.4 °F 81% 29.82 in 5.0 mi Calm Calm - N/A Snow Light Snow
1:13 PM 26.6 °F - 20.7 °F 78% 29.82 in 4.0 mi Calm Calm - N/A Snow Light Snow
1:33 PM 26.1 °F - 20.1 °F 78% 29.81 in 1.8 mi Calm Calm - N/A Snow Light Snow
1:54 PM 25.9 °F - 20.1 °F 79% 29.81 in 3.0 mi Calm Calm - N/A Snow Light Snow
2:14 PM 26.4 °F - 19.6 °F 75% 29.80 in 3.0 mi Calm Calm - N/A Snow Light Snow
2:34 PM 25.2 °F - 19.4 °F 79% 29.80 in 3.0 mi Calm Calm - N/A Snow Light Snow
2:54 PM 25.2 °F - 19.2 °F 78% 29.80 in 4.0 mi Calm Calm - N/A Snow Light Snow
3:14 PM 25.2 °F 20.9 °F 19.8 °F 80% 29.80 in 5.0 mi North 3.5 mph - N/A Snow Light Snow
3:34 PM 25.3 °F 19.7 °F 19.6 °F 79% 29.80 in 5.0 mi NE 4.6 mph - N/A Snow Light Snow
3:54 PM 24.8 °F 19.1 °F 20.1 °F 82% 29.80 in 5.0 mi NE 4.6 mph - N/A Snow Light Snow
4:14 PM 25.0 °F - 20.3 °F 82% 29.81 in 4.0 mi Calm Calm - N/A Snow Light Snow
4:34 PM 24.8 °F 19.1 °F 20.3 °F 83% 29.81 in 2.5 mi NNE 4.6 mph - N/A Snow Light Snow
4:54 PM 24.4 °F 20.1 °F 20.3 °F 84% 29.81 in 2.0 mi NNE 3.5 mph - N/A Snow Light Snow
5:14 PM 24.3 °F 19.9 °F 20.3 °F 85% 29.81 in 2.0 mi NNE 3.5 mph - N/A Snow Light Snow
5:34 PM 23.9 °F - 20.7 °F 87% 29.82 in 1.5 mi Calm Calm - N/A Snow Light Snow
5:54 PM 23.9 °F - 20.8 °F 88% 29.82 in 2.0 mi Calm Calm - N/A Snow Light Snow
6:15 PM 23.9 °F - 21.0 °F 89% 29.82 in 2.0 mi Calm Calm - N/A Snow Light Snow
6:35 PM 23.9 °F - 21.0 °F 89% 29.81 in 2.5 mi Calm Calm - N/A Snow Light Snow
6:55 PM 23.2 °F - 21.0 °F 91% 29.81 in 4.0 mi Calm Calm - N/A Snow Light Snow
7:15 PM 23.2 °F - 21.0 °F 91% 29.81 in 7.0 mi Calm Calm - N/A Snow Light Snow
7:35 PM 25.0 °F - 22.1 °F 89% 29.80 in 5.0 mi Calm Calm - N/A Snow Light Snow
7:55 PM 23.0 °F - 21.2 °F 93% 29.80 in 10.0 mi Calm Calm - N/A Snow Light Snow
8:15 PM 23.0 °F - 21.2 °F 93% 29.81 in 7.0 mi Calm Calm - N/A Snow Light Snow
8:36 PM 23.0 °F - 21.0 °F 92% 29.80 in 10.0 mi Calm Calm - N/A   Overcast
8:56 PM 23.0 °F 18.4 °F 21.2 °F 93% 29.79 in 10.0 mi SE 3.5 mph - N/A   Overcast
9:16 PM 22.8 °F - 21.0 °F 93% 29.78 in 10.0 mi Calm Calm - N/A   Overcast
9:36 PM 21.6 °F - 20.1 °F 94% 29.78 in 10.0 mi Calm Calm - N/A   Overcast
9:56 PM 21.9 °F - 20.3 °F 93% 29.78 in 5.0 mi Calm Calm - N/A Snow Light Snow
10:11 PM 21.9 °F - 20.1 °F 93% 29.77 in 5.0 mi Calm Calm - N/A Snow Light Snow
10:31 PM 24.8 °F 15.3 °F 23.0 °F 93% 29.75 in 5.0 mi West 9.2 mph - N/A Snow Light Snow
10:51 PM 25.5 °F 19.9 °F 22.1 °F 87% 29.74 in 4.0 mi West 4.6 mph - N/A Snow Light Snow
11:11 PM 25.7 °F 15.1 °F 22.1 °F 86% 29.73 in 10.0 mi West 11.5 mph - N/A Snow Light Snow
11:31 PM 25.9 °F 17.4 °F 21.6 °F 84% 29.72 in 10.0 mi West 8.1 mph - N/A   Overcast
11:52 PM 26.2 °F 16.4 °F 21.2 °F 81% 29.71 in 10.0 mi WSW 10.4 mph 19.6 mph N/A   Overcast